Stündliche Wetter Kyzlas

Heute, 14 Mai, Freitag

Zeit Temperatur Niederschläge Wind Luftdruck Luftfeuchtigkeit
00:00 +10°C° 0 mm 1 m/S 707 mmHg 66%
01:00 +10°C° 0 mm 1 m/S 707 mmHg 67%
02:00 +9°C° 0 mm 1 m/S 707 mmHg 68%
03:00 +9°C° 0 mm 1 m/S 707 mmHg 70%
04:00 +9°C° 0 mm 1 m/S 707 mmHg 68%
05:00 +10°C° 0 mm 1 m/S 707 mmHg 66%
06:00 +11°C° 0 mm 1 m/S 708 mmHg 64%
07:00 +13°C° 0 mm 1 m/S 708 mmHg 58%
08:00 +15°C° 0 mm 2 m/S 708 mmHg 51%
09:00 +17°C° 0 mm 2 m/S 708 mmHg 45%
10:00 +17°C° 0 mm 3 m/S 708 mmHg 41%
11:00 +18°C° 0 mm 4 m/S 708 mmHg 38%
12:00 +19°C° 0 mm 4 m/S 708 mmHg 34%
13:00 +17°C° 0 mm 5 m/S 708 mmHg 37%
14:00 +17°C° 0 mm 6 m/S 708 mmHg 39%
15:00 +17°C° 0 mm 6 m/S 708 mmHg 42%
16:00 +15°C° 0.3 mm 5 m/S 709 mmHg 50%
17:00 +14°C° 0.3 mm 5 m/S 710 mmHg 59%
18:00 +13°C° 0.3 mm 4 m/S 710 mmHg 67%
19:00 +11°C° 0.3 mm 3 m/S 711 mmHg 72%
20:00 +10°C° 0.3 mm 2 m/S 712 mmHg 77%
21:00 +10°C° 0.3 mm 1 m/S 713 mmHg 83%
22:00 +10°C° 0.1 mm 1 m/S 713 mmHg 81%
23:00 +9°C° 0.1 mm 1 m/S 713 mmHg 80%

Morgen, 15 Mai, Samstag

Zeit Temperatur Niederschläge Wind Luftdruck Luftfeuchtigkeit
00:00 +9°C° 0.1 mm 1 m/S 714 mmHg 79%
01:00 +9°C° 0 mm 1 m/S 714 mmHg 80%
02:00 +8°C° 0 mm 1 m/S 714 mmHg 81%
03:00 +7°C° 0 mm 1 m/S 714 mmHg 81%
04:00 +8°C° 0 mm 1 m/S 714 mmHg 78%
05:00 +8°C° 0 mm 2 m/S 714 mmHg 74%
06:00 +8°C° 0 mm 2 m/S 714 mmHg 70%
07:00 +10°C° 0 mm 3 m/S 715 mmHg 60%
08:00 +11°C° 0 mm 4 m/S 715 mmHg 51%
09:00 +13°C° 0 mm 5 m/S 715 mmHg 41%
10:00 +14°C° 0 mm 5 m/S 715 mmHg 40%
11:00 +15°C° 0 mm 5 m/S 714 mmHg 39%
12:00 +17°C° 0 mm 5 m/S 714 mmHg 38%
13:00 +17°C° 0 mm 5 m/S 714 mmHg 38%
14:00 +19°C° 0 mm 5 m/S 714 mmHg 38%
15:00 +20°C° 0 mm 5 m/S 713 mmHg 38%
16:00 +19°C° 0 mm 5 m/S 713 mmHg 41%
17:00 +18°C° 0 mm 4 m/S 713 mmHg 44%
18:00 +18°C° 0 mm 4 m/S 713 mmHg 47%
19:00 +16°C° 0 mm 3 m/S 713 mmHg 53%
20:00 +14°C° 0 mm 2 m/S 713 mmHg 59%
21:00 +12°C° 0 mm 2 m/S 713 mmHg 64%
22:00 +12°C° 0 mm 2 m/S 713 mmHg 66%
23:00 +12°C° 0 mm 2 m/S 712 mmHg 67%

übermorgen, 16 Mai, Sonntag

Zeit Temperatur Niederschläge Wind Luftdruck Luftfeuchtigkeit
00:00 +10°C° 0 mm 2 m/S 712 mmHg 68%
01:00 +10°C° 0 mm 2 m/S 712 mmHg 71%
02:00 +9°C° 0 mm 2 m/S 712 mmHg 73%
03:00 +8°C° 0 mm 2 m/S 712 mmHg 76%
04:00 +9°C° 0 mm 2 m/S 712 mmHg 74%
05:00 +10°C° 0 mm 2 m/S 712 mmHg 71%
06:00 +12°C° 0 mm 2 m/S 711 mmHg 69%
07:00 +13°C° 0 mm 3 m/S 711 mmHg 62%
08:00 +16°C° 0 mm 3 m/S 711 mmHg 55%
09:00 +18°C° 0 mm 4 m/S 711 mmHg 48%
10:00 +19°C° 0 mm 5 m/S 711 mmHg 46%
11:00 +19°C° 0 mm 5 m/S 710 mmHg 44%
12:00 +20°C° 0 mm 6 m/S 710 mmHg 42%
13:00 +21°C° 0 mm 6 m/S 710 mmHg 43%
14:00 +21°C° 0 mm 6 m/S 709 mmHg 43%
15:00 +22°C° 0 mm 6 m/S 709 mmHg 44%
16:00 +21°C° 0 mm 6 m/S 709 mmHg 46%
17:00 +21°C° 0 mm 6 m/S 708 mmHg 48%
18:00 +21°C° 0 mm 6 m/S 707 mmHg 50%
19:00 +19°C° 0.1 mm 5 m/S 707 mmHg 56%
20:00 +17°C° 0.1 mm 5 m/S 707 mmHg 61%
21:00 +17°C° 0.1 mm 4 m/S 707 mmHg 67%
22:00 +15°C° 0.4 mm 4 m/S 707 mmHg 72%
23:00 +14°C° 0.4 mm 3 m/S 707 mmHg 78%

17 Mai, Montag

Zeit Temperatur Niederschläge Wind Luftdruck Luftfeuchtigkeit
00:00 +14°C° 0.4 mm 2 m/S 707 mmHg 83%
01:00 +14°C° 0.1 mm 2 m/S 707 mmHg 86%
02:00 +13°C° 0.1 mm 2 m/S 707 mmHg 89%
03:00 +12°C° 0.1 mm 2 m/S 707 mmHg 92%
04:00 +13°C° 0 mm 2 m/S 707 mmHg 89%
05:00 +13°C° 0 mm 3 m/S 707 mmHg 86%
06:00 +14°C° 0 mm 3 m/S 707 mmHg 83%
07:00 +14°C° 0 mm 4 m/S 707 mmHg 80%
08:00 +15°C° 0 mm 5 m/S 707 mmHg 77%
09:00 +16°C° 0 mm 6 m/S 707 mmHg 74%
10:00 +17°C° 0.1 mm 7 m/S 707 mmHg 68%
11:00 +18°C° 0.1 mm 7 m/S 707 mmHg 62%
12:00 +20°C° 0.1 mm 8 m/S 707 mmHg 56%
13:00 +20°C° 0.1 mm 7 m/S 706 mmHg 59%
14:00 +20°C° 0.1 mm 7 m/S 706 mmHg 62%
15:00 +18°C° 0.1 mm 7 m/S 706 mmHg 65%
16:00 +17°C° 1.9 mm 6 m/S 706 mmHg 71%
17:00 +15°C° 1.9 mm 5 m/S 706 mmHg 77%
18:00 +14°C° 1.9 mm 5 m/S 706 mmHg 83%
19:00 +13°C° 0.3 mm 4 m/S 706 mmHg 86%
20:00 +13°C° 0.3 mm 3 m/S 706 mmHg 88%
21:00 +13°C° 0.3 mm 2 m/S 707 mmHg 90%
22:00 +13°C° 0.1 mm 2 m/S 707 mmHg 91%
23:00 +12°C° 0.1 mm 2 m/S 707 mmHg 93%

18 Mai, Dienstag

Zeit Temperatur Niederschläge Wind Luftdruck Luftfeuchtigkeit
00:00 +11°C° 0.1 mm 1 m/S 707 mmHg 94%
01:00 +11°C° 0 mm 1 m/S 707 mmHg 94%
02:00 +11°C° 0 mm 1 m/S 707 mmHg 95%
03:00 +10°C° 0 mm 1 m/S 707 mmHg 95%
04:00 +11°C° 0 mm 1 m/S 707 mmHg 93%
05:00 +11°C° 0 mm 1 m/S 707 mmHg 90%
06:00 +12°C° 0 mm 1 m/S 706 mmHg 88%
07:00 +13°C° 0 mm 1 m/S 706 mmHg 83%
08:00 +14°C° 0 mm 1 m/S 706 mmHg 77%
09:00 +15°C° 0 mm 1 m/S 705 mmHg 72%
10:00 +15°C° 0.5 mm 2 m/S 705 mmHg 75%
11:00 +14°C° 0.5 mm 3 m/S 704 mmHg 77%
12:00 +14°C° 0.5 mm 3 m/S 704 mmHg 80%
13:00 +14°C° 0.4 mm 3 m/S 704 mmHg 83%
14:00 +14°C° 0.4 mm 2 m/S 703 mmHg 85%
15:00 +13°C° 0.4 mm 2 m/S 703 mmHg 88%
16:00 +13°C° 2.7 mm 2 m/S 702 mmHg 90%
17:00 +12°C° 2.7 mm 2 m/S 702 mmHg 91%
18:00 +10°C° 2.7 mm 2 m/S 701 mmHg 93%
19:00 +9°C° 0.5 mm 2 m/S 702 mmHg 93%
20:00 +8°C° 0.5 mm 2 m/S 703 mmHg 94%
21:00 +7°C° 0.5 mm 2 m/S 704 mmHg 94%
22:00 +7°C° 0.3 mm 2 m/S 704 mmHg 94%
23:00 +6°C° 0.3 mm 2 m/S 704 mmHg 93%

19 Mai, Mittwoch

Zeit Temperatur Niederschläge Wind Luftdruck Luftfeuchtigkeit
00:00 +6°C° 0.3 mm 2 m/S 704 mmHg 93%
01:00 +5°C° 0.2 mm 2 m/S 704 mmHg 93%
02:00 +5°C° 0.2 mm 2 m/S 704 mmHg 93%
03:00 +5°C° 0.2 mm 2 m/S 704 mmHg 93%
04:00 +4°C° 0.1 mm 2 m/S 704 mmHg 92%
05:00 +4°C° 0.1 mm 2 m/S 704 mmHg 91%
06:00 +2°C° 0.1 mm 3 m/S 704 mmHg 90%
07:00 +3°C° 0.4 mm 2 m/S 705 mmHg 93%
08:00 +2°C° 0.4 mm 2 m/S 705 mmHg 95%
09:00 +2°C° 0.4 mm 2 m/S 705 mmHg 97%
10:00 +2°C° 1 mm 2 m/S 705 mmHg 95%
11:00 +2°C° 1 mm 2 m/S 705 mmHg 93%
12:00 +2°C° 1 mm 2 m/S 705 mmHg 92%
13:00 +3°C° 0.2 mm 2 m/S 705 mmHg 86%
14:00 +3°C° 0.2 mm 2 m/S 706 mmHg 80%
15:00 +4°C° 0.2 mm 2 m/S 706 mmHg 74%
16:00 +4°C° 0 mm 2 m/S 706 mmHg 74%
17:00 +5°C° 0 mm 1 m/S 706 mmHg 75%
18:00 +5°C° 0 mm 1 m/S 707 mmHg 75%
19:00 +4°C° 0 mm 1 m/S 707 mmHg 80%
20:00 +2°C° 0 mm 1 m/S 707 mmHg 85%
21:00 +1°C° 0 mm 1 m/S 708 mmHg 90%
22:00 +1°C° 0 mm 1 m/S 708 mmHg 90%
23:00 0°C° 0 mm 1 m/S 708 mmHg 89%
Mehr zeigen

Wir brauchen deine Erlaubnis

Meteoprog und unser Service Anbieter werden persönliche Daten aufbewahren, so wie Cookies, Geräte Bezeichnung oder ähnliche Technologien von deinem Gerät und Prozess, so wie Persönliche Daten Inhalte und Werbungen, genauso wie social Media und den Verkehr zu analysieren.

  • Aufbewahrung und/oder Zugang zu deiner Geräte Informationen.

    Cookies, Geräte Bezeichnung oder andere Informationen, können aufbewahrt oder Zugang zu deinem Gerät erhalten, für den Grund, der oben angegeben wird.

  • Personalisierte Werbung und Inhalte, Messungen, Einblick in das Publikum und Produkt Entwicklung.

    Werbungen und Inhalte können personalisiert werden, basierend auf ein Profil. Mehr Daten können besser personalisierte Werbungen und Inhalte hinzufügen. Werbung und Inhalte können gezeigt und gemessen werden. Einblicke über das Publikum, welche die Werbung gesehen haben und den Inhalt, können abgeleitet werden. So wie Daten können genutzt werden, um es zu verbessern oder die Benutzer Erfahrung zu verbessern das System und die Software.

Wenn du “Ich stimme zu” klickst, erlaubst du uns, die Cookies zu benutzen die Geräte Bezeichnung, den Web oder ähnliche Technologien zu benutzen. Deine Settings, können in deinem Gerät bei deinem Browser geändert werden.

Für den bestimmten Zweck, berechtigten Interessen beruhen darauf, mehr als auf den Inhalt. Du kannst mehr darüber in unseren Privaten und Cookie Politik lesen.